User: anonymous   Login
Location: ??
(31.9467°N, 34.8903°E)
Time: 05:55:55
(UTC+00:00)
Language:

Delta 142 - Orbit

View from above orbital plane
View from above orbital plane
View from above satellite
View from above satellite

Ground track
Ground track

The orbit data is extracted from the following two-line orbital elements,

1 10954U 78062B   21015.58807125  .00000086  00000-0 -56415-5 0  9998
2 10954  28.4272 156.8957 0698257   1.8573 358.4375 13.50990143 93437
Epoch (UTC): 15 January 2021 14:06:49
Eccentricity: 0.0698257
inclination: 28.4272°
perigee height: 548 km
apogee height: 1588 km
right ascension of ascending node: 156.8957°
argument of perigee: 1.8573°
revolutions per day: 13.50990143
mean anomaly at epoch: 358.4375°
orbit number at epoch: 9343

The dashed part of the orbit path shows where the satellite is in the earth's shadow,  

DLR